Home > Weather > Radebeul > Past weeks

Flag for Germany Past Weather in Radebeul, Saxony, Germany — Yesterday and Last 2 Weeks

Now
72 °F

Passing clouds.


Feels Like: 75 °F
Forecast: 56 / 80 °F
Wind: 5 mph from South

Location: Dresden-Klotzsche

Current Time: Jul 1, 2016 at 10:45:18 PM

Latest Report: Jul 1, 2016 at 10:20 PM


Visibility: N/A

Pressure: 29.98 "Hg

Humidity: 65%

Dew Point: 59 °F

Location of RadebeulLocation

Past Weather in Radebeul — Graph

°F

Radebeul Temperature Yesterday

Maximum temperature yesterday: 75 °F (at 4:50 PM)
Minimum temperature yesterday: 59 °F (at 4:20 AM)
Average temperature yesterday: 67 °F

High & Low Weather Summary for the Past Weeks

 TemperatureHumidityPressure
High91 °F (Jun 24, 4:50 PM)100% (Jun 16, 11:50 PM)30.27 "Hg (Jun 16, 11:50 PM)
Low52 °F (Jun 19, 5:20 AM)29% (Jun 24, 2:20 PM)29.50 "Hg (Jun 17, 3:50 AM)
Average67 °F72%30.03 "Hg
* Reported Jun 16 9:20 PM — Jul 1 9:50 PM, Radebeul, Weather by CustomWeather, © 2016

Note: Actual official high and low records may vary slightly from our data, if they occured in-between our weather recording intervals... More about our weather records

Advertising

Radebeul Weather History for the Previous 24 Hours

Scroll right to see more
 ConditionsComfort  
Time TempWeatherWind HumidityBarometerVisibility
9:50 PM
Fri, Jul 1
73 °FSunny.6 mph61%29.98 "Hg10 mi
9:20 PM75 °FPassing clouds.3 mph54%29.98 "HgN/A
8:50 PM75 °FSunny.3 mph54%29.98 "Hg10 mi
8:20 PM77 °FSunny.2 mph51%29.95 "Hg10 mi
7:50 PM79 °FSunny.5 mph48%29.98 "Hg10 mi
7:20 PM79 °FPassing clouds.6 mph45%29.98 "HgN/A
6:50 PM79 °FSunny.7 mph45%29.98 "Hg10 mi
6:20 PM79 °FPassing clouds.9 mph42%29.98 "HgN/A
5:50 PM81 °FPassing clouds.8 mph39%29.98 "HgN/A
5:20 PM79 °FPassing clouds.6 mph42%29.98 "HgN/A
4:50 PM81 °FPassing clouds.8 mph39%29.98 "HgN/A
4:20 PM79 °FSunny.9 mph45%29.98 "Hg10 mi
3:50 PM81 °FSunny.9 mph42%29.98 "Hg10 mi
3:20 PM79 °FPassing clouds.12 mph42%29.98 "HgN/A
2:50 PM79 °FSunny.8 mph45%30.01 "Hg10 mi
2:20 PM79 °FPassing clouds.10 mph42%30.01 "HgN/A
1:50 PM79 °FPassing clouds.14 mph39%30.01 "HgN/A
1:20 PM79 °FPassing clouds.12 mph42%30.01 "HgN/A
12:50 PM77 °FSunny.10 mph44%30.01 "Hg10 mi
12:20 PM77 °FScattered clouds.10 mph51%30.04 "HgN/A
11:50 AM77 °FScattered clouds.9 mph47%30.04 "HgN/A
11:20 AM75 °FPassing clouds.9 mph54%30.04 "HgN/A
10:50 AM73 °FPassing clouds.12 mph57%30.04 "HgN/A
10:20 AM73 °FPassing clouds.9 mph57%30.04 "HgN/A
9:50 AM73 °FPassing clouds.8 mph57%30.04 "HgN/A
9:20 AM72 °FPassing clouds.7 mph61%30.04 "HgN/A
8:50 AM72 °FSunny.9 mph65%30.04 "Hg10 mi
8:20 AM70 °FSunny.9 mph69%30.04 "Hg10 mi
7:50 AM68 °FSunny.7 mph73%30.04 "Hg10 mi
7:20 AM66 °FSunny.7 mph78%30.01 "Hg10 mi
6:50 AM66 °FSunny.8 mph78%30.01 "Hg10 mi
6:20 AM63 °FSunny.6 mph88%30.01 "Hg10 mi
5:50 AM63 °FClear.6 mph88%30.01 "Hg10 mi
5:20 AM61 °FPassing clouds.7 mph94%30.01 "HgN/A
4:50 AM63 °FPassing clouds.7 mph88%30.01 "HgN/A
4:20 AM63 °FPassing clouds.8 mph94%29.98 "HgN/A
3:50 AM61 °FClear.7 mph94%29.98 "Hg10 mi
3:20 AM61 °FClear.7 mph100%29.98 "Hg10 mi
2:50 AM61 °FClear.5 mph100%29.98 "Hg10 mi
2:20 AM63 °FPassing clouds.6 mph94%29.98 "HgN/A
1:50 AM63 °FPassing clouds.3 mph94%29.98 "HgN/A
1:20 AM61 °FPassing clouds.3 mph94%29.98 "HgN/A
12:50 AM63 °FPassing clouds.3 mph94%29.98 "HgN/A
12:20 AM63 °FClear.2 mph88%29.98 "Hg10 mi
11:50 PM
Thu, Jun 30
64 °FClear.7 mph88%30.01 "Hg10 mi
11:20 PM64 °FClear.6 mph88%29.98 "Hg10 mi
10:50 PM64 °FClear.5 mph88%30.01 "Hg10 mi
10:20 PM66 °FSunny.3 mph83%30.01 "Hg10 mi
Weather by CustomWeather, © 2016

See weather overviewHow to use our weather pages